| time (UTC) | temp F | wind direction | speed MPH | gust MPH | rain 1hr in | rain 24hr in | rain mn in | humidity % | barometer mb |
| 20260906163046 | 64 | 251 | 4.0 | 9.0 | 0.00 | 0.00 | 0.00 | 68 | 1017.6 |
| 20260906161542 | 63 | 228 | 2.0 | 9.0 | 0.00 | 0.00 | 0.00 | 69 | 1017.7 |
| 20260906160049 | 62 | 258 | 4.0 | 11.0 | 0.00 | 0.00 | 0.00 | 71 | 1017.8 |
| 20260906154543 | 61 | 272 | 6.0 | 11.0 | 0.00 | 0.00 | 0.00 | 73 | 1017.9 |
| 20260906153043 | 61 | 305 | 3.0 | 10.0 | 0.00 | 0.00 | 0.00 | 75 | 1017.9 |
| 20260906151551 | 60 | 284 | 3.0 | 6.0 | 0.00 | 0.00 | 0.00 | 76 | 1017.9 |
| 20260906150047 | 60 | 330 | 1.0 | 4.0 | 0.00 | 0.00 | 0.00 | 78 | 1017.9 |
| 20260906144545 | 59 | 274 | 1.0 | 5.0 | 0.00 | 0.00 | 0.00 | 75 | 1017.9 |
| 20260906143043 | 58 | 167 | 4.0 | 7.0 | 0.00 | 0.00 | 0.00 | 74 | 1017.9 |
| 20260906141542 | 59 | 136 | 2.0 | 3.0 | 0.00 | 0.00 | 0.00 | 74 | 1017.8 |
| 20260906140049 | 58 | 0 | 0.0 | 2.0 | 0.00 | 0.00 | 0.00 | 76 | 1017.6 |
| 20260906134544 | 57 | 139 | 1.0 | 4.0 | 0.00 | 0.00 | 0.00 | 76 | 1017.5 |
| 20260906133055 | 56 | 116 | 2.0 | 4.0 | 0.00 | 0.00 | 0.00 | 78 | 1017.4 |
| 20260906131551 | 56 | 90 | 2.0 | 4.0 | 0.00 | 0.00 | 0.00 | 78 | 1017.4 |
| 20260906130053 | 57 | 75 | 2.0 | 3.0 | 0.00 | 0.00 | 0.00 | 78 | 1017.4 |
| 20260906124547 | 58 | 79 | 1.0 | 4.0 | 0.00 | 0.00 | 0.00 | 78 | 1017.4 |
| 20260906123045 | 59 | 92 | 2.0 | 4.0 | 0.00 | 0.00 | 0.00 | 76 | 1017.5 |
| 20260906121556 | 58 | 70 | 2.0 | 5.0 | 0.00 | 0.00 | 0.00 | 76 | 1017.4 |
| 20260906114551 | 58 | 81 | 3.0 | 8.0 | 0.00 | 0.00 | 0.00 | 75 | 1017.3 |
| 20260906113047 | 58 | 87 | 2.0 | 7.0 | 0.00 | 0.00 | 0.00 | 75 | 1017.4 |
| 20260906111542 | 57 | 84 | 3.0 | 6.0 | 0.00 | 0.00 | 0.00 | 75 | 1017.3 |
| 20260906110045 | 57 | 96 | 4.0 | 9.0 | 0.00 | 0.00 | 0.00 | 75 | 1017.4 |
| 20260906104545 | 56 | 105 | 4.0 | 10.0 | 0.00 | 0.00 | 0.00 | 75 | 1017.4 |
| 20260906103045 | 55 | 91 | 5.0 | 9.0 | 0.00 | 0.00 | 0.00 | 74 | 1017.5 |
| 20260906101554 | 55 | 68 | 5.0 | 9.0 | 0.00 | 0.00 | 0.00 | 73 | 1017.6 |
| 20260906100047 | 55 | 83 | 6.0 | 10.0 | 0.00 | 0.00 | 0.00 | 71 | 1017.6 |
| 20260906094544 | 55 | 94 | 2.0 | 3.0 | 0.00 | 0.00 | 0.00 | 69 | 1017.5 |
| 20260906093050 | 56 | 89 | 0.0 | 2.0 | 0.00 | 0.00 | 0.00 | 67 | 1017.7 |
| 20260906091546 | 56 | 84 | 0.0 | 2.0 | 0.00 | 0.00 | 0.00 | 66 | 1017.6 |
| 20260906090059 | 56 | 98 | 3.0 | 6.0 | 0.00 | 0.00 | 0.00 | 65 | 1017.7 |
| 20260906084553 | 56 | 84 | 4.0 | 10.0 | 0.00 | 0.00 | 0.00 | 63 | 1017.6 |
| 20260906083052 | 57 | 78 | 5.0 | 12.0 | 0.00 | 0.00 | 0.00 | 62 | 1017.8 |
| 20260906081546 | 58 | 68 | 6.0 | 9.0 | 0.00 | 0.00 | 0.00 | 61 | 1017.9 |
| 20260906080107 | 57 | 78 | 5.0 | 9.0 | 0.00 | 0.00 | 0.00 | 62 | 1017.8 |
| 20260906074558 | 58 | 79 | 5.0 | 10.0 | 0.00 | 0.00 | 0.00 | 61 | 1018.1 |
| 20260906073048 | 57 | 82 | 1.0 | 2.0 | 0.00 | 0.00 | 0.00 | 62 | 1018.3 |
| 20260906071557 | 57 | 121 | 2.0 | 2.0 | 0.00 | 0.00 | 0.00 | 63 | 1018.2 |
| 20260906070051 | 58 | 122 | 2.0 | 4.0 | 0.00 | 0.00 | 0.00 | 62 | 1018.3 |
| 20260906064545 | 58 | 119 | 3.0 | 4.0 | 0.00 | 0.00 | 0.00 | 61 | 1018.3 |
| 20260906063053 | 60 | 114 | 1.0 | 2.0 | 0.00 | 0.00 | 0.00 | 58 | 1018.2 |
| 20260906061544 | 61 | 0 | 0.0 | 2.0 | 0.00 | 0.00 | 0.00 | 54 | 1018.2 |
| 20260906060052 | 62 | 105 | 0.0 | 5.0 | 0.00 | 0.00 | 0.00 | 53 | 1018.2 |
| 20260906054546 | 62 | 50 | 0.0 | 4.0 | 0.00 | 0.00 | 0.00 | 53 | 1018.0 |
| 20260906053050 | 62 | 18 | 2.0 | 5.0 | 0.00 | 0.00 | 0.00 | 53 | 1018.1 |
| 20260906051543 | 63 | 0 | 0.0 | 2.0 | 0.00 | 0.00 | 0.00 | 53 | 1018.2 |
| 20260906050051 | 64 | 0 | 0.0 | 2.0 | 0.00 | 0.00 | 0.00 | 50 | 1018.2 |
| 20260906044546 | 64 | 56 | 0.0 | 3.0 | 0.00 | 0.00 | 0.00 | 48 | 1018.1 |
| 20260906043043 | 65 | 0 | 1.0 | 6.0 | 0.00 | 0.00 | 0.00 | 46 | 1018.2 |
| 20260906041554 | 66 | 91 | 2.0 | 6.0 | 0.00 | 0.00 | 0.00 | 45 | 1018.1 |
| 20260906040047 | 66 | 85 | 1.0 | 5.0 | 0.00 | 0.00 | 0.00 | 45 | 1017.9 |
| 20260906034547 | 66 | 51 | 4.0 | 7.0 | 0.00 | 0.00 | 0.00 | 44 | 1017.8 |
| 20260906033041 | 66 | 82 | 3.0 | 6.0 | 0.00 | 0.00 | 0.00 | 44 | 1017.7 |
| 20260906031550 | 67 | 53 | 2.0 | 5.0 | 0.00 | 0.00 | 0.00 | 42 | 1017.8 |
| 20260906030046 | 68 | 53 | 2.0 | 4.0 | 0.00 | 0.00 | 0.00 | 42 | 1017.6 |
| 20260906024558 | 69 | 66 | 3.0 | 4.0 | 0.00 | 0.00 | 0.00 | 43 | 1017.4 |
| 20260906023053 | 71 | 70 | 2.0 | 5.0 | 0.00 | 0.00 | 0.00 | 38 | 1017.2 |
| 20260906021552 | 72 | 104 | 4.0 | 7.0 | 0.00 | 0.00 | 0.00 | 37 | 1017.1 |
| 20260906020050 | 73 | 96 | 2.0 | 5.0 | 0.00 | 0.00 | 0.00 | 38 | 1016.8 |
| 20260906014602 | 74 | 83 | 3.0 | 6.0 | 0.00 | 0.00 | 0.00 | 37 | 1016.6 |
| 20260906013045 | 76 | 85 | 2.0 | 6.0 | 0.00 | 0.00 | 0.00 | 33 | 1016.5 |
| 20260906011545 | 77 | 87 | 3.0 | 8.0 | 0.00 | 0.00 | 0.00 | 31 | 1016.4 |
| 20260906010043 | 78 | 72 | 6.0 | 9.0 | 0.00 | 0.00 | 0.00 | 30 | 1016.2 |
| 20260906004549 | 79 | 100 | 3.0 | 8.0 | 0.00 | 0.00 | 0.00 | 33 | 1016.2 |
| 20260906003102 | 79 | 87 | 4.0 | 8.0 | 0.00 | 0.00 | 0.00 | 28 | 1016.1 |
| 20260906001554 | 80 | 91 | 4.0 | 9.0 | 0.00 | 0.00 | 0.00 | 28 | 1016.1 |
| 20260905234548 | 80 | 75 | 5.0 | 10.0 | 0.00 | 0.00 | 0.00 | 28 | 1016.2 |
| 20260905233048 | 80 | 101 | 5.0 | 8.0 | 0.00 | 0.00 | 0.00 | 27 | 1016.2 |
| 20260905231544 | 80 | 80 | 5.0 | 10.0 | 0.00 | 0.00 | 0.00 | 29 | 1016.2 |
| 20260905230049 | 80 | 129 | 3.0 | 8.0 | 0.00 | 0.00 | 0.00 | 27 | 1016.3 |
| 20260905224542 | 80 | 70 | 4.0 | 9.0 | 0.00 | 0.00 | 0.00 | 30 | 1016.2 |
| 20260905223050 | 79 | 131 | 5.0 | 11.0 | 0.00 | 0.00 | 0.00 | 29 | 1016.2 |
| 20260905221545 | 79 | 108 | 3.0 | 10.0 | 0.00 | 0.00 | 0.00 | 29 | 1016.4 |
| 20260905220052 | 79 | 114 | 6.0 | 10.0 | 0.00 | 0.00 | 0.00 | 29 | 1016.6 |
| 20260905214546 | 78 | 86 | 2.0 | 13.0 | 0.00 | 0.00 | 0.00 | 31 | 1016.7 |
| 20260905213054 | 78 | 132 | 6.0 | 13.0 | 0.00 | 0.00 | 0.00 | 30 | 1016.7 |
| 20260905211553 | 79 | 86 | 3.0 | 9.0 | 0.00 | 0.00 | 0.00 | 30 | 1016.8 |
| 20260905210049 | 79 | 103 | 2.0 | 6.0 | 0.00 | 0.00 | 0.00 | 32 | 1017.0 |
| 20260905204556 | 78 | 86 | 5.0 | 9.0 | 0.00 | 0.00 | 0.00 | 30 | 1017.0 |
| 20260905203056 | 78 | 108 | 2.0 | 9.0 | 0.00 | 0.00 | 0.00 | 31 | 1017.3 |
| 20260905201552 | 76 | 91 | 6.0 | 12.0 | 0.00 | 0.00 | 0.00 | 33 | 1017.4 |
| 20260905200056 | 76 | 84 | 5.0 | 13.0 | 0.00 | 0.00 | 0.00 | 32 | 1017.4 |
| 20260905194549 | 75 | 101 | 7.0 | 13.0 | 0.00 | 0.00 | 0.00 | 33 | 1017.4 |
| 20260905193047 | 75 | 124 | 3.0 | 11.0 | 0.00 | 0.00 | 0.00 | 33 | 1017.7 |
| 20260905191557 | 75 | 115 | 4.0 | 9.0 | 0.00 | 0.00 | 0.00 | 34 | 1017.7 |
| 20260905190058 | 74 | 95 | 4.0 | 13.0 | 0.00 | 0.00 | 0.00 | 36 | 1017.7 |
| 20260905184550 | 74 | 105 | 7.0 | 13.0 | 0.00 | 0.00 | 0.00 | 35 | 1018.0 |
| 20260905183058 | 75 | 101 | 2.0 | 5.0 | 0.00 | 0.00 | 0.00 | 36 | 1018.1 |
| 20260905181550 | 72 | 103 | 4.0 | 9.0 | 0.00 | 0.00 | 0.00 | 39 | 1018.3 |
| 20260905180047 | 73 | 98 | 3.0 | 7.0 | 0.00 | 0.00 | 0.00 | 37 | 1018.6 |
| 20260905174544 | 72 | 140 | 2.0 | 9.0 | 0.00 | 0.00 | 0.00 | 38 | 1018.6 |
| 20260905173051 | 70 | 120 | 3.0 | 9.0 | 0.00 | 0.00 | 0.00 | 40 | 1018.7 |
| 20260905171546 | 71 | 92 | 2.0 | 6.0 | 0.00 | 0.00 | 0.00 | 40 | 1018.8 |
| 20260905170047 | 70 | 113 | 3.0 | 7.0 | 0.00 | 0.00 | 0.00 | 40 | 1018.9 |
| 20260905164543 | 69 | 85 | 4.0 | 9.0 | 0.00 | 0.00 | 0.00 | 42 | 1018.9 |